Location: Boleita
(10.4833°N, 66.8167°W)
Time: 13:44:28
(UTC+00:00)

USA 59 Rocket - Pass Details

Date: 03 August 2024
Orbit: 381 x 1731 km, 63.3° (Epoch: 14 September)

Event Time Altitude Azimuth Distance (km) Brightness Sun altitude
Rises 23:36:51 0° 197° (SSW) 3,713 4.0 -11.7°
Reaches altitude 10° 23:39:53 10° 194° (SSW) 2,525 3.1 -12.4°
Maximum altitude 23:45:26 59° 115° (ESE) 769 0.2 -13.7°
Drops below altitude 10° 23:49:22 10° 36° (NE) 1,804 2.3 -14.6°
Sets 23:51:15 0° 32° (NNE) 2,567 3.1 -15.0°
